Track STARLINK-24 now! 10-day predictions STARLINK-24 is classified as:
1 44238U 19029D 21021.24342532 .00003895 00000-0 22454-3 0 9998 2 44238 52.9970 299.2036 0001973 84.1731 275.9485 15.14629299 90423